Location: Newark
(42.8481°N, 0.4872°E)
Time: 14:14:37
(UTC+00:00)

deb Explorer IX - All Passes

Search period start: 30 October 2020 00:00
Search period end: 09 November 2020 00:00
Orbit: 537 x 1106 km, 38.8° (Epoch: 30 October)

Date Brightness Start Highest point End Pass type
(mag) Time Alt. Az. Time Alt. Az. Time Alt. Az.
30 Oct - 02:45:02 10° SSE 02:46:14 11° SE 02:47:28 10° SE visible
30 Oct - 04:26:55 10° SW 04:32:02 35° SSE 04:37:54 10° E visible
30 Oct - 06:12:40 10° WSW 06:18:42 60° S 06:25:36 10° E daylight
30 Oct - 07:59:19 10° W 08:05:47 56° SSW 08:12:52 10° ESE daylight
30 Oct - 09:46:36 10° W 09:52:37 31° SSW 09:58:52 10° SSE daylight
31 Oct - 02:22:35 10° SE 02:23:02 10° SE 02:23:28 10° SE visible
31 Oct - 04:03:51 10° SW 04:08:47 34° SSE 04:14:28 10° E visible
31 Oct - 05:49:33 10° WSW 05:55:25 60° S 06:02:11 10° E visible
31 Oct - 07:36:09 10° W 07:42:27 56° SSW 07:49:27 10° ESE daylight
31 Oct - 09:23:21 10° W 09:29:16 31° SSW 09:35:30 10° SSE daylight
01 Nov - 03:40:48 10° SW 03:45:33 34° SSE 03:51:03 10° E visible
01 Nov - 05:26:27 10° WSW 05:32:08 59° S 05:38:45 10° E visible
01 Nov - 07:13:00 10° W 07:19:08 55° SSW 07:26:02 10° ESE daylight
01 Nov - 09:00:10 10° W 09:05:56 30° SSW 09:12:05 10° SSE daylight
02 Nov - 03:17:45 10° SW 03:22:20 33° SSE 03:27:39 10° E visible
02 Nov - 05:03:22 10° WSW 05:08:53 58° S 05:15:20 10° E visible
02 Nov - 06:49:51 10° W 06:55:49 54° S 07:02:36 10° ESE daylight
02 Nov - 08:36:59 10° W 08:42:36 30° SSW 08:48:39 10° SSE daylight
03 Nov - 02:54:43 10° SW 02:59:08 32° SSE 03:04:14 10° E visible
03 Nov - 04:40:18 10° WSW 04:45:38 58° S 04:51:54 10° E visible
03 Nov - 06:26:44 10° W 06:32:32 53° S 06:39:11 10° ESE daylight
03 Nov - 08:13:49 10° W 08:19:17 29° SSW 08:25:14 10° SSE daylight
04 Nov - 02:31:41 10° SW 02:35:57 31° SSE 02:40:51 10° E visible
04 Nov - 04:17:15 10° WSW 04:22:24 57° S 04:28:29 10° E visible
04 Nov - 06:03:38 10° W 06:09:15 52° SSW 06:15:45 10° ESE visible
04 Nov - 07:50:40 10° W 07:55:58 28° SSW 08:01:46 10° SSE daylight
05 Nov - 02:08:40 10° SW 02:12:46 30° SSE 02:17:28 10° E visible
05 Nov - 03:54:12 10° WSW 03:59:11 56° S 04:05:05 10° E visible
05 Nov - 05:40:33 10° W 05:45:59 51° S 05:52:19 10° ESE visible
05 Nov - 07:27:34 10° W 07:32:40 27° SSW 07:38:19 10° SSE daylight
06 Nov - 01:45:38 10° SW 01:49:36 29° SSE 01:54:07 10° E visible
06 Nov - 03:31:09 10° WSW 03:35:59 55° S 03:41:41 10° E visible
06 Nov - 05:17:29 10° W 05:22:43 50° SSW 05:28:52 10° ESE visible
06 Nov - 07:04:28 10° W 07:09:23 26° SSW 07:14:51 10° SSE daylight
07 Nov - 01:22:37 10° SW 01:26:26 29° SSE 01:30:46 10° E night (unlit)
07 Nov - 03:08:07 10° WSW 03:12:47 54° S 03:18:17 10° E visible
07 Nov - 04:54:25 10° W 04:59:29 49° SSW 05:05:27 10° ESE visible
07 Nov - 06:41:23 10° W 06:46:06 26° SSW 06:51:23 10° SSE daylight
08 Nov - 00:59:35 10° SW 01:03:18 28° SSE 01:07:27 10° E night (unlit)
08 Nov - 02:45:05 10° WSW 02:49:37 53° S 02:54:55 10° E visible
08 Nov - 04:31:22 10° W 04:36:16 48° S 04:42:02 10° ESE visible
08 Nov - 06:18:20 10° W 06:22:50 25° SSW 06:27:54 10° SSE daylight
